EW7119 Weather Reports


time (UTC)temp
C
wind
direction
speed
KPH
gust
KPH
rain 1hr
cm
rain 24hr
cm
rain mn
cm
humidity
%
barometer
mb
20260507013050 -2 156 0.0 4.8 0.03 0.69 0.69 86 1017.5
20260507011552 -2 167 1.6 6.4 0.05 0.69 0.69 85 1017.3
20260507010109 -1 153 1.6 4.8 0.05 0.69 0.69 84 1017.0
20260507004521 -1 169 1.6 8.0 0.05 0.66 0.66 84 1016.7
20260507003132 -1 227 3.2 6.4 0.08 0.66 0.66 82 1016.6
20260507001612 0 154 3.2 8.0 0.08 0.64 0.64 80 1016.6
20260507000110 0 174 3.2 8.0 0.10 0.64 0.64 79 1016.4
20260506234611 0 198 0.0 9.7 0.10 0.61 0.61 79 1016.2
20260506233119 0 270 0.0 11.3 0.10 0.58 0.58 82 1016.2
20260506231625 0 258 4.8 9.7 0.08 0.56 0.56 82 1016.2
20260506230106 0 189 4.8 12.9 0.08 0.53 0.53 82 1015.9
20260506224546 -1 219 0.0 9.7 0.08 0.51 0.51 85 1015.6
20260506223056 -1 169 1.6 6.4 0.05 0.48 0.48 83 1015.6
20260506221604 -1 219 0.0 6.4 0.10 0.48 0.48 85 1015.7
20260506220110 -1 209 1.6 4.8 0.10 0.46 0.46 85 1015.7
20260506214616 -1 233 0.0 8.0 0.15 0.43 0.43 85 1015.7
20260506213012 -1 239 0.0 11.3 0.15 0.41 0.41 85 1015.6
20260506211526 -1 250 1.6 8.0 0.18 0.38 0.38 83 1015.4
20260506210033 -1 173 3.2 12.9 0.18 0.36 0.36 82 1015.3
20260506204544 -1 165 4.8 12.9 0.15 0.28 0.28 83 1015.4
20260506203053 -1 227 1.6 9.7 0.20 0.25 0.25 86 1015.1
20260506201535 -2 263 3.2 8.0 0.18 0.20 0.20 85 1015.2
20260506200053 -2 264 3.2 9.7 0.15 0.18 0.18 85 1015.0
20260506194550 -1 268 3.2 9.7 0.08 0.10 0.10 86 1014.9
20260506193044 -2 240 3.2 11.3 0.03 0.05 0.05 86 1014.7
20260506191518 -2 250 1.6 9.7 0.00 0.03 0.03 86 1014.7
20260506190022 -2 155 3.2 9.7 0.03 0.03 0.03 86 1014.4
20260506184536 -2 178 3.2 6.4 0.03 0.03 0.03 82 1014.4
20260506183030 -2 184 3.2 8.0 0.03 0.03 0.03 86 1014.3
20260506181549 -3 166 1.6 8.0 0.03 0.03 0.03 88 1014.3
20260506180040 -3 251 3.2 8.0 0.00 0.00 0.00 86 1014.6
20260506174627 -3 192 1.6 6.4 0.00 0.00 0.00 88 1014.4
20260506173044 -3 321 1.6 4.8 0.00 0.00 0.00 88 1014.1
20260506171627 -3 321 1.6 6.4 0.00 0.00 0.00 90 1013.8
20260506170130 -4 84 0.0 6.4 0.00 0.00 0.00 91 1013.6
20260506164558 -5 44 0.0 8.0 0.00 0.00 0.00 91 1013.3
20260506163102 -5 319 3.2 9.7 0.00 0.00 0.00 91 1013.2
20260506161557 -5 313 6.4 12.9 0.00 0.00 0.00 90 1012.7
20260506160112 -4 319 3.2 8.0 0.00 0.00 0.00 90 1012.4
20260506154555 -4 312 3.2 6.4 0.00 0.00 0.00 91 1012.1
20260506153102 -3 298 1.6 4.8 0.00 0.00 0.00 91 1011.8
20260506151609 -3 165 0.0 3.2 0.00 0.00 0.00 91 1011.4
20260506144612 -4 223 1.6 11.3 0.00 0.00 0.00 91 1011.3
20260506143105 -4 323 0.0 0.0 0.00 0.00 0.00 92 1011.2
20260506141614 -4 323 0.0 0.0 0.00 0.00 0.00 92 1011.2
20260506140123 -4 325 0.0 0.0 0.00 0.00 0.00 92 1010.9
20260506134632 -5 325 0.0 0.0 0.00 0.00 0.00 92 1010.8
20260506133020 -4 325 0.0 4.8 0.00 0.00 0.00 92 1010.8
20260506131537 -5 331 0.0 0.0 0.00 0.00 0.00 92 1010.0
20260506130100 -5 331 0.0 0.0 0.00 0.00 0.00 92 1010.0
20260506124540 -5 331 0.0 0.0 0.00 0.00 0.00 92 1009.8
20260506123051 -5 128 0.0 0.0 0.00 0.00 0.00 92 1009.5
20260506121607 -5 128 0.0 3.2 0.00 0.00 0.00 92 1008.9
20260506120125 -5 135 3.2 9.7 0.00 0.00 0.00 91 1008.5
20260506114612 -5 69 3.2 12.9 0.00 0.00 0.00 91 1008.8
20260506113010 -5 338 4.8 12.9 0.00 0.00 0.00 91 1008.9
20260506111515 -5 318 1.6 6.4 0.00 0.00 0.00 92 1008.6
20260506110039 -5 343 0.0 6.4 0.00 0.00 0.00 92 1008.3
20260506104551 -5 304 1.6 4.8 0.00 0.00 0.00 92 1008.1
20260506103038 -5 304 0.0 4.8 0.00 0.00 0.00 92 1008.0
20260506101550 -4 309 0.0 3.2 0.00 0.00 0.00 92 1007.9
20260506100050 -4 341 0.0 0.0 0.00 0.00 0.00 92 1007.7
20260506094551 -4 341 0.0 0.0 0.00 0.00 0.00 92 1007.5
20260506093055 -4 349 0.0 6.4 0.00 0.00 0.00 92 1007.5
20260506091553 -4 327 0.0 6.4 0.00 0.00 0.00 92 1007.7
20260506090054 -3 323 0.0 1.6 0.00 0.00 0.00 92 1007.6
20260506084548 -3 67 1.6 6.4 0.00 0.00 0.00 92 1007.4
20260506083044 -3 325 0.0 1.6 0.00 0.00 0.00 93 1007.4
20260506081524 -3 312 1.6 4.8 0.00 0.00 0.00 92 1007.3
20260506073058 -3 304 0.0 0.0 0.00 0.00 0.00 93 1007.0
20260506071558 -3 304 0.0 0.0 0.00 0.00 0.00 93 1007.0
20260506070118 -3 304 0.0 0.0 0.00 0.00 0.00 93 1006.9
20260506061616 -2 304 0.0 0.0 0.00 0.00 0.00 93 1006.7
20260506050130 -2 304 0.0 4.8 0.00 0.00 0.00 94 1005.9
20260506044522 -2 247 1.6 6.4 0.00 0.00 0.00 93 1005.9
20260506043045 -1 270 0.0 4.8 0.00 0.00 0.00 94 1005.7
20260506041521 -1 263 0.0 0.0 0.00 0.00 0.00 94 1005.3
20260506040007 -1 263 0.0 0.0 0.00 0.00 0.00 94 1005.0
20260506034622 -1 263 0.0 3.2 0.00 0.00 0.00 94 1004.9
20260506033131 -1 263 0.0 3.2 0.00 0.00 0.00 94 1004.9
20260506031604 -1 172 3.2 6.4 0.00 0.00 0.00 94 1004.7
20260506030115 -1 208 0.0 6.4 0.00 0.00 0.00 94 1004.4
20260506024616 -1 261 1.6 4.8 0.00 0.00 0.00 94 1004.1
20260506023037 -1 188 0.0 11.3 0.00 0.00 0.00 94 1003.7
20260506021523 -1 263 0.0 0.0 0.00 0.00 0.00 94 1003.4
20260506020050 -1 263 0.0 3.2 0.00 0.00 0.00 93 1003.2
20260506014603 -1 263 0.0 3.2 0.00 0.00 0.00 93 1002.8